When you browse on this site, cookies collect data to enhance your experience and personalize the content and advertising you see.
Visit our Privacy Policy to learn more. By continuing to use the site, you agree to this use of cookies and data.
  • In Österreich
  • Länderverzeichnis
  • Für 7 Tage
  • Wassertemperatur
  • Wetterkarte
  • News
  • Widgets
  • user-avatar
    Anmelden

    Stündliche Wetter Zapadnyy

    Heute, 15 September, Sonntag

    Zeit Temperatur Niederschläge Wind Luftdruck Luftfeuchtigkeit
    00:00 +9°C° 0 mm 2 m/S 756 mmHg 85%
    01:00 +9°C° 0 mm 2 m/S 756 mmHg 87%
    02:00 +8°C° 0 mm 2 m/S 756 mmHg 89%
    03:00 +8°C° 0 mm 2 m/S 756 mmHg 90%
    04:00 +8°C° 0 mm 2 m/S 756 mmHg 91%
    05:00 +7°C° 0 mm 2 m/S 756 mmHg 93%
    06:00 +8°C° 0 mm 2 m/S 756 mmHg 86%
    07:00 +10°C° 0 mm 3 m/S 755 mmHg 80%
    08:00 +11°C° 0 mm 3 m/S 755 mmHg 74%
    09:00 +13°C° 0 mm 4 m/S 755 mmHg 67%
    10:00 +14°C° 0 mm 4 m/S 754 mmHg 61%
    11:00 +15°C° 0 mm 5 m/S 754 mmHg 55%
    12:00 +16°C° 0 mm 5 m/S 753 mmHg 53%
    13:00 +17°C° 0 mm 5 m/S 753 mmHg 51%
    14:00 +17°C° 0 mm 6 m/S 752 mmHg 49%
    15:00 +17°C° 0 mm 5 m/S 751 mmHg 50%
    16:00 +16°C° 0 mm 5 m/S 750 mmHg 51%
    17:00 +17°C° 0 mm 4 m/S 749 mmHg 52%
    18:00 +15°C° 0 mm 4 m/S 749 mmHg 53%
    19:00 +15°C° 0 mm 4 m/S 749 mmHg 54%
    20:00 +14°C° 0 mm 4 m/S 748 mmHg 55%
    21:00 +14°C° 0 mm 5 m/S 748 mmHg 56%
    22:00 +14°C° 0 mm 5 m/S 747 mmHg 58%
    23:00 +14°C° 0 mm 5 m/S 746 mmHg 59%

    Morgen, 16 September, Montag

    Zeit Temperatur Niederschläge Wind Luftdruck Luftfeuchtigkeit
    00:00 +14°C° 0 mm 5 m/S 746 mmHg 61%
    01:00 +14°C° 0 mm 5 m/S 746 mmHg 62%
    02:00 +14°C° 0 mm 5 m/S 745 mmHg 64%
    03:00 +14°C° 0 mm 5 m/S 745 mmHg 65%
    04:00 +14°C° 0 mm 5 m/S 745 mmHg 65%
    05:00 +15°C° 0 mm 5 m/S 745 mmHg 66%
    06:00 +15°C° 0 mm 5 m/S 745 mmHg 64%
    07:00 +15°C° 0 mm 6 m/S 745 mmHg 62%
    08:00 +15°C° 0 mm 6 m/S 745 mmHg 61%
    09:00 +16°C° 0 mm 6 m/S 745 mmHg 58%
    10:00 +17°C° 0 mm 7 m/S 745 mmHg 55%
    11:00 +17°C° 0 mm 7 m/S 745 mmHg 52%
    12:00 +18°C° 0 mm 7 m/S 745 mmHg 49%
    13:00 +18°C° 0 mm 7 m/S 745 mmHg 47%
    14:00 +18°C° 0 mm 7 m/S 744 mmHg 44%
    15:00 +17°C° 0 mm 6 m/S 744 mmHg 47%
    16:00 +16°C° 0 mm 6 m/S 744 mmHg 50%
    17:00 +15°C° 0 mm 5 m/S 744 mmHg 53%
    18:00 +14°C° 0 mm 4 m/S 744 mmHg 59%
    19:00 +12°C° 0 mm 4 m/S 744 mmHg 64%
    20:00 +10°C° 0 mm 3 m/S 744 mmHg 70%
    21:00 +10°C° 0 mm 3 m/S 744 mmHg 73%
    22:00 +9°C° 0 mm 3 m/S 744 mmHg 76%
    23:00 +8°C° 0 mm 3 m/S 743 mmHg 79%

    übermorgen, 17 September, Dienstag

    Zeit Temperatur Niederschläge Wind Luftdruck Luftfeuchtigkeit
    00:00 +8°C° 0 mm 3 m/S 743 mmHg 82%
    01:00 +8°C° 0 mm 3 m/S 743 mmHg 84%
    02:00 +7°C° 0 mm 3 m/S 743 mmHg 87%
    03:00 +7°C° 0 mm 3 m/S 743 mmHg 87%
    04:00 +7°C° 0 mm 3 m/S 742 mmHg 88%
    05:00 +7°C° 0 mm 3 m/S 742 mmHg 89%
    06:00 +7°C° 0 mm 4 m/S 742 mmHg 82%
    07:00 +8°C° 0 mm 5 m/S 742 mmHg 74%
    08:00 +9°C° 0 mm 5 m/S 742 mmHg 67%
    09:00 +10°C° 0 mm 6 m/S 742 mmHg 63%
    10:00 +13°C° 0 mm 6 m/S 742 mmHg 58%
    11:00 +14°C° 0 mm 6 m/S 742 mmHg 54%
    12:00 +14°C° 0.1 mm 6 m/S 741 mmHg 53%
    13:00 +14°C° 0.1 mm 6 m/S 741 mmHg 53%
    14:00 +15°C° 0.1 mm 7 m/S 740 mmHg 52%
    15:00 +14°C° 0.2 mm 6 m/S 740 mmHg 56%
    16:00 +14°C° 0.2 mm 6 m/S 740 mmHg 59%
    17:00 +13°C° 0.2 mm 5 m/S 739 mmHg 62%
    18:00 +12°C° 0.2 mm 5 m/S 739 mmHg 69%
    19:00 +11°C° 0.2 mm 4 m/S 739 mmHg 75%
    20:00 +10°C° 0.2 mm 4 m/S 739 mmHg 82%
    21:00 +8°C° 0.2 mm 4 m/S 739 mmHg 83%
    22:00 +7°C° 0.2 mm 5 m/S 739 mmHg 85%
    23:00 +7°C° 0.2 mm 5 m/S 739 mmHg 87%

    18 September, Mittwoch

    Zeit Temperatur Niederschläge Wind Luftdruck Luftfeuchtigkeit
    00:00 +6°C° 0.2 mm 5 m/S 739 mmHg 87%
    01:00 +6°C° 0.2 mm 5 m/S 739 mmHg 88%
    02:00 +6°C° 0.2 mm 5 m/S 739 mmHg 88%
    03:00 +5°C° 0 mm 5 m/S 739 mmHg 88%
    04:00 +5°C° 0 mm 5 m/S 739 mmHg 88%
    05:00 +4°C° 0 mm 6 m/S 739 mmHg 89%
    06:00 +4°C° 0 mm 6 m/S 739 mmHg 87%
    07:00 +5°C° 0 mm 6 m/S 740 mmHg 85%
    08:00 +5°C° 0 mm 6 m/S 740 mmHg 83%
    09:00 +7°C° 0.2 mm 6 m/S 741 mmHg 81%
    10:00 +8°C° 0.2 mm 6 m/S 742 mmHg 78%
    11:00 +9°C° 0.2 mm 6 m/S 742 mmHg 76%
    12:00 +9°C° 0.2 mm 6 m/S 743 mmHg 72%
    13:00 +10°C° 0.2 mm 7 m/S 743 mmHg 68%
    14:00 +11°C° 0.2 mm 7 m/S 743 mmHg 64%
    15:00 +11°C° 0.1 mm 7 m/S 743 mmHg 67%
    16:00 +10°C° 0.1 mm 6 m/S 744 mmHg 69%
    17:00 +10°C° 0.1 mm 5 m/S 744 mmHg 72%
    18:00 +9°C° 0.2 mm 5 m/S 744 mmHg 76%
    19:00 +9°C° 0.2 mm 5 m/S 745 mmHg 80%
    20:00 +8°C° 0.2 mm 4 m/S 745 mmHg 83%
    21:00 +7°C° 0 mm 4 m/S 745 mmHg 86%
    22:00 +6°C° 0 mm 4 m/S 745 mmHg 88%
    23:00 +6°C° 0 mm 4 m/S 746 mmHg 90%

    19 September, Donnerstag

    Zeit Temperatur Niederschläge Wind Luftdruck Luftfeuchtigkeit
    00:00 +6°C° 0 mm 4 m/S 746 mmHg 90%
    01:00 +8°C° 0 mm 3 m/S 746 mmHg 91%
    02:00 +8°C° 0 mm 3 m/S 746 mmHg 91%
    03:00 +7°C° 0 mm 4 m/S 746 mmHg 90%
    04:00 +7°C° 0 mm 4 m/S 747 mmHg 90%
    05:00 +7°C° 0 mm 4 m/S 747 mmHg 90%
    06:00 +7°C° 0 mm 4 m/S 747 mmHg 87%
    07:00 +7°C° 0 mm 4 m/S 747 mmHg 85%
    08:00 +7°C° 0 mm 4 m/S 747 mmHg 83%
    09:00 +8°C° 0 mm 4 m/S 748 mmHg 73%
    10:00 +11°C° 0 mm 4 m/S 748 mmHg 64%
    11:00 +12°C° 0 mm 4 m/S 748 mmHg 55%
    12:00 +12°C° 0.1 mm 4 m/S 748 mmHg 54%
    13:00 +13°C° 0.1 mm 4 m/S 748 mmHg 54%
    14:00 +13°C° 0.1 mm 4 m/S 748 mmHg 53%
    15:00 +13°C° 0.3 mm 4 m/S 748 mmHg 58%
    16:00 +12°C° 0.3 mm 3 m/S 748 mmHg 64%
    17:00 +12°C° 0.3 mm 3 m/S 748 mmHg 69%
    18:00 +10°C° 0.3 mm 3 m/S 748 mmHg 75%
    19:00 +9°C° 0.3 mm 3 m/S 749 mmHg 81%
    20:00 +7°C° 0.3 mm 2 m/S 749 mmHg 87%
    21:00 +7°C° 0 mm 2 m/S 749 mmHg 89%
    22:00 +6°C° 0 mm 2 m/S 749 mmHg 91%
    23:00 +5°C° 0 mm 2 m/S 750 mmHg 94%

    20 September, Freitag

    Zeit Temperatur Niederschläge Wind Luftdruck Luftfeuchtigkeit
    00:00 +5°C° 0 mm 2 m/S 750 mmHg 94%
    01:00 +5°C° 0 mm 2 m/S 750 mmHg 94%
    02:00 +4°C° 0 mm 2 m/S 750 mmHg 94%
    03:00 +4°C° 0 mm 2 m/S 750 mmHg 94%
    04:00 +3°C° 0 mm 2 m/S 750 mmHg 94%
    05:00 +3°C° 0 mm 2 m/S 750 mmHg 94%
    06:00 +4°C° 0 mm 2 m/S 750 mmHg 92%
    07:00 +5°C° 0 mm 2 m/S 751 mmHg 89%
    08:00 +5°C° 0 mm 2 m/S 751 mmHg 86%
    09:00 +7°C° 0.1 mm 3 m/S 751 mmHg 81%
    10:00 +8°C° 0.1 mm 3 m/S 751 mmHg 76%
    11:00 +10°C° 0.1 mm 3 m/S 752 mmHg 71%
    12:00 +10°C° 0.4 mm 4 m/S 752 mmHg 71%
    13:00 +10°C° 0.4 mm 4 m/S 752 mmHg 71%
    14:00 +10°C° 0.4 mm 4 m/S 752 mmHg 71%
    15:00 +10°C° 0.1 mm 4 m/S 752 mmHg 71%
    16:00 +8°C° 0.1 mm 4 m/S 752 mmHg 70%
    17:00 +9°C° 0.1 mm 3 m/S 752 mmHg 69%
    18:00 +8°C° 0 mm 3 m/S 752 mmHg 73%
    19:00 +5°C° 0 mm 3 m/S 753 mmHg 77%
    20:00 +5°C° 0 mm 2 m/S 753 mmHg 80%
    21:00 +4°C° 0 mm 2 m/S 753 mmHg 82%
    22:00 +4°C° 0 mm 2 m/S 753 mmHg 83%
    23:00 +3°C° 0 mm 2 m/S 753 mmHg 85%
    Mehr zeigen